This demonstration page uses our WeatherBlox Daily Observations layout. Learn more.

Left ArrowRight Arrow

41.86663, -103.66717

Hourly Observations for December 22, 2020

Temp ( °F °C ) Dew Point ( °F °C ) Humidity (%) Winds ( mph kmh ) Pressure ( in mb ) Visibility ( mi km ) Precip ( " mm )
12:53 am 00:53 Clear 34 1.1 25 -3.9 70 70 E 7 11 29.89 1012 10 16 0.00 0.00
1:53 am 01:53 Clear 33 0.6 24 -4.4 70 70 E 7 11 29.86 1011 10 16 0.00 0.00
2:53 am 02:53 Clear 33 0.6 25 -3.9 72 72 E 8 13 29.83 1010 10 16 0.00 0.00
3:53 am 03:53 Clear 33 0.6 24 -4.4 70 70 E 7 11 29.79 1009 10 16 0.00 0.00
4:53 am 04:53 Clear 31 -0.6 23 -5 72 72 E 10 17 29.77 1008 10 16 0.00 0.00
5:53 am 05:53 Clear 32 0 24 -4.4 73 73 NE 8 13 29.75 1007 10 16 0.00 0.00
6:53 am 06:53 Clear 28 -2.2 21 -6.1 75 75 Calm 29.74 1007 10 16 0.00 0.00
7:53 am 07:53 Sunny 28 -2.2 22 -5.6 78 78 Calm 29.71 1006 10 16 0.00 0.00
8:53 am 08:53 Sunny 35 1.7 26 -3.3 70 70 Calm 29.69 1005 10 16 0.00 0.00
9:53 am 09:53 Sunny 43 6.1 30 -1.1 60 60 SSE 6 9 29.65 1004 10 16 0.00 0.00
10:53 am 10:53 Sunny 56 13.3 29 -1.7 36 36 VRB 3 6 29.56 1001 10 16 0.00 0.00
11:53 am 11:53 Sunny 62 16.7 25 -3.9 24 24 NW 8 13 29.50 999 10 16 0.00 0.00
12:53 pm 12:53 Sunny 63 17.2 27 -2.8 26 26 NNW 5 7 29.44 997 10 16 0.00 0.00
1:53 pm 13:53 Sunny 66 18.9 23 -5 19 19 undefined N/A 29.40 996 10 16 0.00 0.00
2:53 pm 14:53 Mostly Sunny 62 16.7 25 -3.9 24 24 undefined N/A 29.39 995 10 16 0.00 0.00
3:53 pm 15:53 Mostly Cloudy 57 13.9 27 -2.8 32 32 Calm 29.39 995 10 16 0.00 0.00
4:53 pm 16:53 Cloudy 55 12.8 31 -0.6 40 40 W 12 19 29.42 996 10 16 0.01 0.25
5:53 pm 17:53 Cloudy 50 10 32 0 50 50 W 22 35 29.45 997 10 16 0.00 0.00
6:53 pm 18:53 Cloudy 47 8.3 27 -2.8 46 46 W 24 39 29.47 998 10 16 0.00 0.00
7:53 pm 19:53 Cloudy 46 7.8 22 -5.6 38 38 W 31 50 29.55 1001 10 16 0.00 0.00
8:50 pm 20:50 Windy with Snow Likely 36 2 27 -3 70 70 NNW 33 54 29.65 1004 9 14 0.00 0.00
8:53 pm 20:53 Cloudy 36 2.2 25 -3.9 64 64 NNW 31 50 29.60 1002 9 14 0.00 0.00
9:04 pm 21:04 Cloudy 36 2 25 -4 65 65 NNW 28 44 29.67 1005 10 16 0.00 0.00
9:53 pm 21:53 Cloudy 35 1.7 22 -5.6 59 59 NW 30 48 29.66 1004 10 16 0.00 0.00
10:53 pm 22:53 Cloudy 32 0 20 -6.7 61 61 NW 37 59 29.68 1005 10 16 0.00 0.00
11:53 pm 23:53 Cloudy 28 -2.2 16 -8.9 60 60 NW 29 46 29.70 1006 10 16 0.00 0.00

Powered by AerisWeather